Location: ???? ?????
(30.0052°N, 31.2891°E)
Time: 21:24:21
(UTC+00:00)

Cosmos 1626 Rocket - Pass Details

Date: 26 May 2022
Orbit: 602 x 631 km, 82.5° (Epoch: 05 July)

Event Time Altitude Azimuth Distance (km) Brightness Sun altitude
Exits shadow 02:09:36 - 207° (SSW) 2,124 5.8 -9.7°
Reaches altitude 10° 02:09:57 10° 208° (SSW) 1,989 5.6 -9.6°
Maximum altitude 02:14:06 40° 279° (W) 914 4.1 -8.9°
Drops below altitude 10° 02:18:15 10° 349° (N) 1,984 6.4 -8.1°
Sets 02:20:35 0° 357° (N) 2,888 7.4 -7.7°
